Flag for Israel Weather past 2 weeks in Kfar Saba, Israel

Now
86 °F

Scattered clouds.


Feels Like: 92 °F
Forecast: 78 / 87 °F
Wind: 9 mph from West

Location: Dov Airport

Current Time: Sep 1, 2014 at 10:51:00 AM

Latest Report: Sep 1, 2014 at 9:50 AM


Visibility: N/A

Pressure: 29.77 "Hg

Humidity: 62%

Dew point: 72 °F

Location of Kfar SabaLocation

Historic Weather in Kfar Saba — Graph

°F

Kfar Saba temperature yesterday

Maximum temperature yesterday: 88 °F (at 11:50 AM)
Minimum temperature yesterday: 82 °F (at 4:50 AM)
Average temperature yesterday: 85 °F

Past Weeks' High & Low Weather Summary

 TemperatureHumidityPressure
High90 °F (Aug 18, 11:50 AM)89% (Aug 24, 4:50 AM)29.92 "Hg (Aug 24, 4:50 AM)
Low77 °F (Aug 20, 5:50 AM)55% (Aug 21, 8:50 AM)29.59 "Hg (Aug 17, 3:50 PM)
Average84 °F70%29.75 "Hg
* Reported Aug 17 8:50 AM — Sep 1 8:50 AM, Kfar Saba, Weather by CustomWeather, © 2014

Note: Actual official high and low records may vary slightly from our data, if they occured in-between our weather recording intervals... More about our weather records

Advertising

Kfar Saba weather history for previous 24 hours

 ConditionsComfort  
Time TempWeatherWind HumidityBarometerVisibility
8:50 AM
Sep 1
86 °FScattered clouds.7 mph66%29.74 "HgN/A
7:50 AM84 °FScattered clouds.3 mph70%29.74 "HgN/A
6:50 AM81 °FPassing clouds.3 mph74%29.74 "HgN/A
5:50 AM81 °FPassing clouds.3 mph79%29.74 "HgN/A
5:00 AM81 °FPassing clouds.5 mph79%29.74 "HgN/A
10:50 PM
Aug 31
82 °FPassing clouds.5 mph74%29.74 "HgN/A
9:50 PM84 °FPassing clouds.7 mph74%29.74 "HgN/A
8:50 PM84 °FPassing clouds.7 mph70%29.74 "HgN/A
7:50 PM84 °FBroken clouds.8 mph70%29.71 "HgN/A
6:50 PM84 °FScattered clouds.9 mph74%29.71 "HgN/A
5:50 PM86 °FScattered clouds.10 mph70%29.71 "HgN/A
4:50 PM86 °FPassing clouds.12 mph70%29.71 "HgN/A
3:50 PM88 °FPassing clouds.10 mph66%29.71 "HgN/A
2:50 PM88 °FPassing clouds.10 mph66%29.71 "HgN/A
1:50 PM88 °FSunny.10 mph66%29.74 "Hg10 mi
12:50 PM88 °FPassing clouds.8 mph66%29.77 "HgN/A
11:50 AM88 °FScattered clouds.8 mph66%29.77 "HgN/A
10:50 AM86 °FPartly sunny.8 mph70%29.77 "HgN/A
Weather by CustomWeather, © 2014

See weather overviewHow to use our weather pages